• In Netherlands
  • List of Countries
  • For 7 days
  • Water Temperature
  • Satellite Maps
  • Weather Map
  • Weather Widgets
  • user-avatar
    Login

    Hourly Weather Darwin

    Today, 21 August, Monday

    Time Temperature Precipitation Wind Pressure Humidity
    00:00 +26°C° 0 mm 2 mps 759 mmHg 65%
    01:00 +25°C° 0 mm 1 mps 759 mmHg 66%
    02:00 +25°C° 0 mm 1 mps 759 mmHg 67%
    03:00 +25°C° 0 mm 1 mps 759 mmHg 72%
    04:00 +25°C° 0 mm 1 mps 759 mmHg 74%
    05:00 +24°C° 0 mm 1 mps 759 mmHg 76%
    06:00 +24°C° 0 mm 1 mps 759 mmHg 77%
    07:00 +27°C° 0 mm 1 mps 759 mmHg 69%
    08:00 +29°C° 0 mm 2 mps 760 mmHg 61%
    09:00 +31°C° 0 mm 2 mps 760 mmHg 52%
    10:00 +34°C° 0 mm 2 mps 760 mmHg 42%
    11:00 +36°C° 0 mm 3 mps 759 mmHg 32%
    12:00 +38°C° 0 mm 3 mps 759 mmHg 22%
    13:00 +38°C° 0 mm 4 mps 758 mmHg 20%
    14:00 +40°C° 0 mm 4 mps 758 mmHg 18%
    15:00 +40°C° 0 mm 4 mps 757 mmHg 17%
    16:00 +37°C° 0 mm 4 mps 757 mmHg 23%
    17:00 +35°C° 0 mm 4 mps 757 mmHg 30%
    18:00 +33°C° 0 mm 3 mps 757 mmHg 37%
    19:00 +30°C° 0 mm 3 mps 758 mmHg 47%
    20:00 +29°C° 0 mm 3 mps 758 mmHg 58%
    21:00 +27°C° 0 mm 3 mps 759 mmHg 69%
    22:00 +27°C° 0 mm 3 mps 759 mmHg 71%
    23:00 +26°C° 0 mm 2 mps 759 mmHg 74%

    Tomorrow, 22 August, Tuesday

    Time Temperature Precipitation Wind Pressure Humidity
    00:00 +26°C° 0 mm 2 mps 760 mmHg 76%
    01:00 +26°C° 0 mm 3 mps 759 mmHg 77%
    02:00 +26°C° 0 mm 3 mps 759 mmHg 78%
    03:00 +26°C° 0 mm 3 mps 759 mmHg 80%
    04:00 +25°C° 0 mm 3 mps 759 mmHg 81%
    05:00 +25°C° 0 mm 3 mps 759 mmHg 83%
    06:00 +25°C° 0 mm 4 mps 759 mmHg 85%
    07:00 +26°C° 0 mm 4 mps 760 mmHg 76%
    08:00 +28°C° 0 mm 4 mps 760 mmHg 68%
    09:00 +30°C° 0 mm 5 mps 760 mmHg 59%
    10:00 +33°C° 0 mm 5 mps 760 mmHg 48%
    11:00 +35°C° 0 mm 5 mps 760 mmHg 37%
    12:00 +38°C° 0 mm 6 mps 759 mmHg 26%
    13:00 +39°C° 0 mm 6 mps 759 mmHg 24%
    14:00 +39°C° 0 mm 6 mps 758 mmHg 23%
    15:00 +40°C° 0 mm 6 mps 757 mmHg 22%
    16:00 +38°C° 0 mm 6 mps 757 mmHg 29%
    17:00 +35°C° 0 mm 6 mps 758 mmHg 36%
    18:00 +33°C° 0 mm 6 mps 758 mmHg 44%
    19:00 +32°C° 0 mm 5 mps 758 mmHg 51%
    20:00 +29°C° 0 mm 5 mps 759 mmHg 58%
    21:00 +28°C° 0 mm 4 mps 760 mmHg 65%
    22:00 +28°C° 0 mm 4 mps 760 mmHg 68%
    23:00 +27°C° 0 mm 4 mps 760 mmHg 71%

    Day after tomorrow, 23 August, Wednesday

    Time Temperature Precipitation Wind Pressure Humidity
    00:00 +27°C° 0 mm 3 mps 760 mmHg 75%
    01:00 +26°C° 0 mm 3 mps 760 mmHg 77%
    02:00 +26°C° 0 mm 4 mps 760 mmHg 79%
    03:00 +25°C° 0 mm 4 mps 760 mmHg 81%
    04:00 +25°C° 0 mm 4 mps 760 mmHg 83%
    05:00 +23°C° 0 mm 4 mps 760 mmHg 84%
    06:00 +23°C° 0 mm 4 mps 760 mmHg 85%
    07:00 +26°C° 0 mm 4 mps 761 mmHg 70%
    08:00 +28°C° 0 mm 5 mps 761 mmHg 54%
    09:00 +30°C° 0 mm 5 mps 761 mmHg 38%
    10:00 +34°C° 0 mm 6 mps 761 mmHg 32%
    11:00 +36°C° 0 mm 6 mps 760 mmHg 26%
    12:00 +39°C° 0 mm 6 mps 760 mmHg 20%
    13:00 +40°C° 0 mm 6 mps 759 mmHg 20%
    14:00 +40°C° 0 mm 6 mps 758 mmHg 20%
    15:00 +41°C° 0 mm 5 mps 757 mmHg 21%
    16:00 +39°C° 0 mm 5 mps 757 mmHg 25%
    17:00 +36°C° 0 mm 5 mps 758 mmHg 30%
    18:00 +35°C° 0 mm 5 mps 758 mmHg 34%
    19:00 +33°C° 0 mm 4 mps 758 mmHg 43%
    20:00 +30°C° 0 mm 4 mps 759 mmHg 52%
    21:00 +29°C° 0 mm 4 mps 760 mmHg 61%
    22:00 +28°C° 0 mm 4 mps 760 mmHg 66%
    23:00 +27°C° 0 mm 4 mps 760 mmHg 71%

    24 August, Thursday

    Time Temperature Precipitation Wind Pressure Humidity
    00:00 +27°C° 0 mm 3 mps 760 mmHg 75%
    01:00 +26°C° 0 mm 3 mps 760 mmHg 79%
    02:00 +26°C° 0 mm 3 mps 759 mmHg 82%
    03:00 +25°C° 0 mm 3 mps 759 mmHg 86%
    04:00 +25°C° 0 mm 3 mps 759 mmHg 87%
    05:00 +23°C° 0 mm 4 mps 760 mmHg 87%
    06:00 +23°C° 0 mm 4 mps 760 mmHg 88%
    07:00 +26°C° 0 mm 4 mps 760 mmHg 71%
    08:00 +28°C° 0 mm 5 mps 761 mmHg 53%
    09:00 +30°C° 0 mm 5 mps 761 mmHg 36%
    10:00 +34°C° 0 mm 5 mps 761 mmHg 29%
    11:00 +36°C° 0 mm 4 mps 760 mmHg 22%
    12:00 +40°C° 0 mm 4 mps 759 mmHg 16%
    13:00 +40°C° 0 mm 4 mps 759 mmHg 15%
    14:00 +41°C° 0 mm 4 mps 758 mmHg 15%
    15:00 +41°C° 0 mm 5 mps 757 mmHg 15%
    16:00 +38°C° 0 mm 4 mps 757 mmHg 19%
    17:00 +36°C° 0 mm 4 mps 757 mmHg 23%
    18:00 +35°C° 0 mm 3 mps 757 mmHg 27%
    19:00 +31°C° 0 mm 3 mps 758 mmHg 36%
    20:00 +29°C° 0 mm 2 mps 759 mmHg 46%
    21:00 +27°C° 0 mm 2 mps 759 mmHg 56%
    22:00 +27°C° 0 mm 2 mps 759 mmHg 59%
    23:00 +26°C° 0 mm 2 mps 759 mmHg 63%

    25 August, Friday

    Time Temperature Precipitation Wind Pressure Humidity
    00:00 +26°C° 0 mm 2 mps 759 mmHg 66%
    01:00 +26°C° 0 mm 2 mps 759 mmHg 69%
    02:00 +25°C° 0 mm 2 mps 759 mmHg 72%
    03:00 +25°C° 0 mm 2 mps 759 mmHg 75%
    04:00 +24°C° 0 mm 3 mps 759 mmHg 72%
    05:00 +24°C° 0 mm 3 mps 759 mmHg 69%
    06:00 +22°C° 0 mm 4 mps 760 mmHg 65%
    07:00 +26°C° 0 mm 4 mps 760 mmHg 51%
    08:00 +28°C° 0 mm 5 mps 760 mmHg 37%
    09:00 +32°C° 0 mm 6 mps 761 mmHg 23%
    10:00 +34°C° 0 mm 6 mps 760 mmHg 21%
    11:00 +36°C° 0 mm 5 mps 759 mmHg 19%
    12:00 +39°C° 0 mm 5 mps 758 mmHg 18%
    13:00 +40°C° 0 mm 5 mps 758 mmHg 17%
    14:00 +40°C° 0 mm 5 mps 757 mmHg 17%
    15:00 +41°C° 0 mm 5 mps 756 mmHg 16%
    16:00 +38°C° 0 mm 4 mps 756 mmHg 19%
    17:00 +37°C° 0 mm 4 mps 756 mmHg 21%
    18:00 +35°C° 0 mm 3 mps 756 mmHg 24%
    19:00 +33°C° 0 mm 3 mps 757 mmHg 32%
    20:00 +30°C° 0 mm 2 mps 758 mmHg 41%
    21:00 +27°C° 0 mm 2 mps 758 mmHg 49%
    22:00 +27°C° 0 mm 2 mps 758 mmHg 53%
    23:00 +26°C° 0 mm 2 mps 759 mmHg 57%

    26 August, Saturday

    Time Temperature Precipitation Wind Pressure Humidity
    00:00 +26°C° 0 mm 1 mps 759 mmHg 62%
    01:00 +26°C° 0 mm 1 mps 758 mmHg 64%
    02:00 +25°C° 0 mm 1 mps 758 mmHg 66%
    03:00 +25°C° 0 mm 2 mps 758 mmHg 69%
    04:00 +25°C° 0 mm 2 mps 758 mmHg 68%
    05:00 +24°C° 0 mm 3 mps 759 mmHg 68%
    06:00 +24°C° 0 mm 3 mps 759 mmHg 67%
    07:00 +26°C° 0 mm 4 mps 759 mmHg 53%
    08:00 +28°C° 0 mm 5 mps 760 mmHg 39%
    09:00 +30°C° 0 mm 5 mps 760 mmHg 25%
    10:00 +33°C° 0 mm 5 mps 759 mmHg 22%
    11:00 +35°C° 0 mm 5 mps 759 mmHg 18%
    12:00 +38°C° 0 mm 4 mps 758 mmHg 15%
    13:00 +38°C° 0 mm 4 mps 758 mmHg 15%
    14:00 +40°C° 0 mm 4 mps 757 mmHg 14%
    15:00 +41°C° 0 mm 4 mps 756 mmHg 14%
    16:00 +38°C° 0 mm 4 mps 756 mmHg 17%
    17:00 +36°C° 0 mm 3 mps 757 mmHg 20%
    18:00 +34°C° 0 mm 3 mps 757 mmHg 23%
    19:00 +31°C° 0 mm 3 mps 757 mmHg 30%
    20:00 +29°C° 0 mm 3 mps 758 mmHg 37%
    21:00 +27°C° 0 mm 2 mps 758 mmHg 44%
    22:00 +26°C° 0 mm 2 mps 758 mmHg 47%
    23:00 +26°C° 0 mm 2 mps 758 mmHg 49%
    Show more